AOXIANG-1

Last updated on April 5, 2018, 12:15 a.m. UTC

1 42735U 98067MQ  18094.32293025  .00014340  00000-0  15145-3 0  9990
2 42735  51.6373  14.9624 0004833 315.2501  44.8103 15.64472294 50143
UTC
Height (km)
Latitude
Longitude
Inclination
Orbital Period
UTC large
Height (km)
Speed (km/s)
/
Latitude / Longitude
Inclination (degrees)
Orbital Period (minutes)
Azimuth
Elevation
Range (km)
Doppler Factor
iOS Compass Heading
iOS Angle